Hlavní strana
METAR-TAF:

METAR-TAF

Letiště :

Båtsfjord, Norsko

zeměpisná šířka: 70-38N, zeměpisná délka: 029-44E, výška: 10 m

Aktuální stav počasí

Zpráva byla vytvořena před 6 hodinami a 37 minutami, v 16:50 UTC
Jihojihozápadní vítr 14 kt
Teplota 2°C
Vlhkost vzduchu 87%
Tlak 1011 hPa
Viditelnost 10 km a více
Polojasno ve výšce 800 ft
Oblačno až skoro zataženo ve výšce 4500 ft

METAR: ENBS 201650Z 20014KT 9999 SCT008 BKN045 02/00 Q1011

Čas: 01:27 (23:27 UTC)


TAF: chybějící

Stav a předpovědi počasí z více než 4 000 letišť (zprávy METAR a TAF).

Červené a žluté tečky na mapě představují dostupné meteorologické stanice.

Když kurzor umístíte na tečku, zobrazí se název stanice.

Pak kliknutím zobrazíte stav a předpověď počasí.

Chcete-li změnit mapu, kliknutím na zelené tlačítko se znaménkem +mapu přiblížíte, kliknutím na zelené tlačítko se znaménkem – mapu oddálíte a kliknutím na zelené šipky přejdete na sousední mapy.


METAR-TAF: